Location: Vale
(35.4830°N, 81.3830°W)
Time: 19:54:56
(UTC-04:00)

Amateur Radio Satellites - All Passes

Search period start: 28 September 2016 19:24
Search period end: 29 September 2016 19:24
Location: Vale, 35.4830°N, 81.3830°W

Satellite Date Start Highest point End Downlink Frequencies (MHz)
Time Altitude Azimuth
BRITE-PL 28 Sep 19:27:52 19:32:06 21° 267° (W) 19:36:19 437.365/2234.400
LilacSat-2 28 Sep 19:28:52 19:32:17 33° 262° (W) 19:35:44 437.200
DOVE 4 28 Sep 19:29:36 19:34:41 89° 98° (E) 19:39:30 437.250
RS-15 28 Sep 19:32:32 19:42:57 43° 107° (ESE) 19:53:50 29.354- 29.394
STRAND 1 28 Sep 19:35:26 19:38:20 15° 93° (E) 19:41:14 437.568
JUGNU 28 Sep 19:40:51 19:41:13 10° 165° (SSE) 19:41:35 437.505
CUBESAT XI-V 28 Sep 19:51:33 19:54:16 15° 294° (WNW) 19:56:57 437.345
GONETS M04 28 Sep 19:54:44 20:02:56 41° 76° (ENE) 20:11:02
NOAA 18 28 Sep 19:54:53 19:59:50 35° 262° (W) 20:04:49 137.9125
CUBEBUG 2 28 Sep 20:04:34 20:05:59 12° 66° (ENE) 20:07:23 437.445
DANDE 28 Sep 20:07:46 20:12:23 41° 89° (E) 20:18:24 436.750
COMPASS 1 28 Sep 20:09:40 20:12:30 18° 69° (ENE) 20:15:21 437.405
CUSAT 1 28 Sep 20:09:57 20:15:58 69° 281° (W) 20:23:28 437.405
UWE-3 28 Sep 20:21:00 20:22:18 11° 66° (ENE) 20:23:37 435.000/436.395/437.385
CINEMA 3 28 Sep 20:36:08 20:40:38 67° 259° (WSW) 20:44:56 145.822/145.860
SEEDS 28 Sep 20:38:19 20:42:27 60° 75° (ENE) 20:46:37 437.485
CUTE 1.7 + AOD 2 28 Sep 20:38:22 20:42:35 90° 276° (W) 20:46:52 437.475
CANX-2 28 Sep 20:39:49 20:44:02 74° 260° (W) 20:48:17 2200.000
ISS 28 Sep 20:40:08 20:43:20 62° 320° (NW) 20:46:35 145.825
Oscar 11 28 Sep 20:43:53 20:46:00 14° 66° (ENE) 20:48:08 145.826/435.025
ZACube-1 28 Sep 20:47:23 20:49:39 14° 67° (ENE) 20:51:53 437.345
HO-68 28 Sep 20:52:16 20:59:24 69° 257° (WSW) 21:06:33 435.675
AAUSAT CUBESAT 2 28 Sep 20:58:28 21:02:31 53° 75° (ENE) 21:06:35 437.432
Cosmos 2499 28 Sep 21:01:40 21:09:21 86° 265° (W) 21:17:40 435.465 / 435.565
STRAND 1 28 Sep 21:12:46 21:17:47 54° 287° (WNW) 21:22:47 437.568
AO-85 28 Sep 21:25:01 21:30:18 84° 118° (ESE) 21:35:18 145.980
JUGNU 28 Sep 21:25:55 21:29:28 16° 175° (S) 21:32:59 437.505
CUBEBUG 2 28 Sep 21:38:04 21:42:10 49° 260° (W) 21:46:12 437.445
FUNcube-1 28 Sep 21:38:54 21:42:56 55° 75° (ENE) 21:46:59 145.935
RS-15 28 Sep 21:43:46 21:55:02 54° 308° (NW) 22:06:56 29.354- 29.394
COMPASS 1 28 Sep 21:44:05 21:47:48 31° 263° (W) 21:51:32 437.405
DANDE 28 Sep 21:51:21 21:55:31 23° 294° (WNW) 22:00:35 436.750
GONETS M04 28 Sep 21:51:43 21:59:34 38° 273° (W) 22:07:21
UWE-3 28 Sep 21:54:16 21:58:18 49° 260° (W) 22:02:20 435.000/436.395/437.385
CUSAT 1 28 Sep 21:58:23 21:59:41 11° 302° (WNW) 22:01:03 437.405
DELFI C3 28 Sep 22:10:49 22:14:42 52° 75° (ENE) 22:18:37 145.870
Oscar 11 28 Sep 22:17:35 22:21:42 45° 261° (W) 22:25:52 145.826/435.025
ISS 28 Sep 22:19:43 22:20:23 10° 337° (NNW) 22:21:04 145.825
ZACube-1 28 Sep 22:21:43 22:25:35 38° 262° (W) 22:29:27 437.345
SRMSAT 28 Sep 22:25:43 22:27:40 12° 167° (SSE) 22:29:37 437.500
PRISM 28 Sep 22:26:12 22:30:20 84° 283° (WNW) 22:34:26 437.425
TIGRISAT 28 Sep 22:31:17 22:32:33 11° 92° (E) 22:33:48 435.000
HUMSAT D 28 Sep 22:33:35 22:37:28 45° 74° (ENE) 22:41:23 437.325/437.525
Cosmos 2499 28 Sep 22:58:29 23:01:25 12° 280° (W) 23:04:26 435.465 / 435.565
AO-85 28 Sep 23:08:46 23:11:17 14° 314° (NW) 23:13:43 145.980
UNISAT 6 28 Sep 23:09:45 23:13:49 35° 98° (E) 23:17:56 437.425
JUGNU 28 Sep 23:14:11 23:17:43 16° 185° (S) 23:21:15 437.505
VELOX 1 28 Sep 23:26:32 23:28:43 14° 66° (ENE) 23:30:54 145.980
CUBEBUG 1 28 Sep 23:27:14 23:30:12 18° 68° (ENE) 23:33:10 437.445
ESTCUBE 1 28 Sep 23:29:30 23:33:27 31° 71° (ENE) 23:37:26 437.505/2401.250
M-CUBED/EXP-1 PRIME 28 Sep 23:43:47 23:46:39 19° 66° (ENE) 23:49:23 437.505
ANTELSAT 28 Sep 23:44:48 23:49:15 90° 68° (ENE) 23:53:48 437.575/2403.000
JAS-2 28 Sep 23:57:11 00:02:25 19° 89° (E) 00:07:26 435.910
SPROUT 29 Sep 00:03:19 00:06:10 18° 68° (ENE) 00:09:02 437.525
RS-15 29 Sep 00:03:34 00:11:20 19° 337° (NNW) 00:19:18 29.354- 29.394
TIGRISAT 29 Sep 00:05:09 00:09:28 56° 285° (WNW) 00:13:54 435.000
DUCHIFAT 1 29 Sep 00:09:14 00:11:47 16° 94° (E) 00:14:19 145.980
QB50P1 29 Sep 00:12:02 00:15:09 20° 95° (E) 00:18:15 145.935-145.965
HUMSAT D 29 Sep 00:12:07 00:13:18 11° 268° (W) 00:14:31 437.325/437.525
SRMSAT 29 Sep 00:12:25 00:16:03 17° 177° (S) 00:19:41 437.500
AISAT 29 Sep 00:16:51 00:21:12 53° 74° (ENE) 00:25:32 437.250
UKube-1 29 Sep 00:18:50 00:22:20 24° 69° (ENE) 00:25:50 .
SO-50 29 Sep 00:19:19 00:23:29 34° 54° (NE) 00:27:33 436.795
POPSAT HIP 1 29 Sep 00:25:13 00:28:51 28° 97° (E) 00:32:30 437.405
AUBIESAT-1 29 Sep 00:38:30 00:42:35 69° 72° (ENE) 00:46:24 437.475
NANOSAT C BR1 29 Sep 00:40:32 00:44:30 41° 99° (E) 00:48:29 145.865
UNISAT 6 29 Sep 00:47:11 00:50:16 19° 292° (WNW) 00:53:23 437.425
DX 1 29 Sep 00:48:32 00:52:54 73° 75° (ENE) 00:57:16 434.975-435.025
BEESAT 3 29 Sep 00:50:03 00:53:41 39° 114° (ESE) 00:57:21 437.485
50 SAT 29 Sep 00:56:06 00:59:36 48° 261° (W) 01:03:08 437.505
VELOX 1 29 Sep 01:00:24 01:04:43 49° 260° (W) 01:09:03 145.980
CUBEBUG 1 29 Sep 01:02:07 01:06:10 35° 262° (W) 01:10:15 437.445
QB50P2 29 Sep 01:04:49 01:09:03 84° 283° (WNW) 01:13:16 145.880/145.840
JUGNU 29 Sep 01:05:17 01:05:56 10° 195° (SSW) 01:06:35 437.505
ESTCUBE 1 29 Sep 01:06:50 01:10:15 21° 265° (W) 01:13:41 437.505/2401.250
POLYITAN 1 29 Sep 01:07:00 01:11:15 84° 281° (W) 01:15:28 437.675
M-CUBED/EXP-1 PRIME 29 Sep 01:17:16 01:20:59 30° 257° (WSW) 01:24:28 437.505
TISAT 1 29 Sep 01:19:08 01:22:31 24° 70° (ENE) 01:25:54 437.305
SPROUT 29 Sep 01:37:59 01:41:50 33° 262° (W) 01:45:42 437.525
Cosmos 2491 29 Sep 01:38:24 01:45:38 27° 71° (ENE) 01:52:48 435.465 / 435.565
JAS-2 29 Sep 01:40:12 01:48:04 76° 286° (WNW) 01:55:25 435.910
BUGSAT 1 29 Sep 01:41:16 01:45:18 81° 102° (ESE) 01:49:21 437.445
DUCHIFAT 1 29 Sep 01:43:44 01:47:32 35° 288° (WNW) 01:51:21 145.980
QB50P1 29 Sep 01:47:17 01:50:53 28° 289° (WNW) 01:54:28 145.935-145.965
BEESAT 2 29 Sep 01:47:30 01:51:26 87° 299° (WNW) 01:55:25 435.950
UKube-1 29 Sep 01:54:43 01:58:15 24° 263° (W) 02:01:48 .
AISAT 29 Sep 01:56:24 01:57:54 11° 268° (W) 01:59:26 437.250
SO-50 29 Sep 02:00:19 02:03:42 21° 250° (WSW) 02:07:02 436.795
SRMSAT 29 Sep 02:01:09 02:04:28 15° 187° (S) 02:07:47 437.500
POPSAT HIP 1 29 Sep 02:01:21 02:04:27 20° 291° (WNW) 02:07:32 437.405
ITUPSAT 1 29 Sep 02:10:03 02:13:15 18° 66° (ENE) 02:16:28 437.325
Gurwin Techsat 1B 29 Sep 02:12:23 02:14:58 14° 92° (E) 02:17:32 435.225
NANOSAT C BR1 29 Sep 02:17:38 02:19:51 14° 293° (WNW) 02:22:04 145.865
SWISSCUBE 29 Sep 02:21:36 02:25:35 27° 69° (ENE) 02:29:35 437.505
RS-15 29 Sep 02:24:13 02:31:11 16° 15° (NNE) 02:38:10 29.354- 29.394
BEESAT 3 29 Sep 02:29:06 02:31:30 16° 310° (NW) 02:33:55 437.485
BEESAT 29 Sep 02:34:10 02:38:23 33° 70° (ENE) 02:42:38 436.000
YUBILEINY 29 Sep 02:34:14 02:41:20 28° 84° (E) 02:48:24 435.215
Oscar 19 29 Sep 02:42:48 02:47:55 63° 101° (ESE) 02:52:59 437.125/150
TISAT 1 29 Sep 02:54:44 02:58:04 23° 264° (W) 03:01:23 437.305
ISS 29 Sep 03:10:29 03:13:34 36° 37° (NE) 03:16:38 145.825
JAS-2 29 Sep 03:27:59 03:31:41 14° 304° (WNW) 03:35:19 435.910
PCSat 29 Sep 03:31:50 03:34:52 15° 104° (ESE) 03:37:53 145.827
Cosmos 2491 29 Sep 03:34:18 03:42:54 58° 269° (W) 03:51:26 435.465 / 435.565
ITAMSAT 1 29 Sep 03:39:04 03:43:23 26° 96° (E) 03:47:41 435.822/435.867
ITUPSAT 1 29 Sep 03:46:16 03:50:44 41° 261° (W) 03:55:15 437.325
Gurwin Techsat 1B 29 Sep 03:50:01 03:55:17 62° 286° (WNW) 04:00:30 435.225
MOZHAYETS 4 29 Sep 03:50:05 03:54:09 33° 71° (ENE) 03:58:14
SWISSCUBE 29 Sep 03:59:18 04:03:16 26° 264° (W) 04:07:16 437.505
KKS-1 29 Sep 04:06:45 04:10:41 31° 71° (ENE) 04:14:37 437.445
BEESAT 29 Sep 04:12:33 04:16:11 21° 265° (W) 04:19:49 436.000
AIST 2 29 Sep 04:20:06 04:24:08 58° 301° (WNW) 04:28:13 435.215
Oscar 19 29 Sep 04:24:05 04:26:39 14° 297° (WNW) 04:29:13 437.125/150
YUBILEINY 29 Sep 04:29:01 04:37:34 55° 281° (W) 04:46:07 435.215
Cosmos 2504 29 Sep 04:35:51 04:43:15 69° 94° (E) 04:50:22 435.465 / 435.565
RS-15 29 Sep 04:36:59 04:48:33 42° 47° (NE) 04:59:48 29.354- 29.394
STARS 29 Sep 04:37:02 04:40:55 32° 71° (ENE) 04:44:48 437.465
ISS 29 Sep 04:47:33 04:49:50 18° 231° (SW) 04:52:06 145.825
AO-7 29 Sep 04:58:36 05:06:51 65° 104° (ESE) 05:15:03 29.400- 29.500
CUSAT 1 29 Sep 05:09:29 05:12:21 12° 59° (ENE) 05:15:01 437.405
PCSat 29 Sep 05:12:21 05:17:41 60° 299° (WNW) 05:23:03 145.827
CUBESAT XI-V 29 Sep 05:13:03 05:17:14 33° 71° (ENE) 05:21:25 437.345
ITAMSAT 1 29 Sep 05:18:11 05:22:49 33° 291° (WNW) 05:27:26 435.822/435.867
HORYU 2 29 Sep 05:23:17 05:24:14 11° 92° (E) 05:25:11 437.375
MOZHAYETS 4 29 Sep 05:28:00 05:31:19 20° 266° (W) 05:34:42
AIST 1 29 Sep 05:32:13 05:36:26 47° 93° (E) 05:40:38
KKS-1 29 Sep 05:44:01 05:47:15 20° 265° (W) 05:50:30 437.445
BRITE-PL 29 Sep 05:58:15 06:01:01 16° 91° (E) 06:03:40 437.365/2234.400
AO-85 29 Sep 06:00:40 06:04:10 26° 53° (NE) 06:07:30 145.980
STARS 29 Sep 06:14:11 06:17:17 19° 265° (W) 06:20:25 437.465
Cosmos 2504 29 Sep 06:32:30 06:37:10 18° 290° (WNW) 06:41:47 435.465 / 435.565
NOAA 18 29 Sep 06:41:07 06:43:44 13° 92° (E) 06:46:21 137.9125
CUSAT 1 29 Sep 06:48:18 06:55:53 78° 81° (E) 07:01:58 437.405
DANDE 29 Sep 06:48:37 06:56:18 38° 72° (ENE) 07:03:18 436.750
STRAND 1 29 Sep 06:48:39 06:51:49 17° 65° (ENE) 06:54:59 437.568
RS-15 29 Sep 06:49:32 07:01:30 60° 249° (WSW) 07:13:08 29.354- 29.394
CUBESAT XI-V 29 Sep 06:51:04 06:54:37 21° 266° (W) 06:58:11 437.345
AO-7 29 Sep 06:52:28 06:58:57 26° 301° (WNW) 07:05:27 29.400- 29.500
HORYU 2 29 Sep 06:56:43 07:01:05 58° 286° (WNW) 07:05:27 437.375
LilacSat-2 29 Sep 07:04:57 07:08:19 28° 97° (E) 07:11:40 437.200
NOAA 15 29 Sep 07:06:09 07:11:06 39° 99° (E) 07:16:00 137.62
AIST 1 29 Sep 07:12:30 07:14:16 12° 288° (WNW) 07:16:03
GOMX 1 29 Sep 07:17:31 07:21:43 47° 99° (E) 07:25:44 467.674
CUTE-I 29 Sep 07:26:40 07:31:54 52° 100° (E) 07:37:06 437.470
Cubesat XI-IV 29 Sep 07:26:58 07:32:11 51° 100° (E) 07:37:23 437.490
DOVE 4 29 Sep 07:32:19 07:35:50 26° 96° (E) 07:39:19 437.250
BRITE-PL 29 Sep 07:35:22 07:39:44 39° 288° (WNW) 07:43:48 437.365/2234.400
O/OREOS (USA 219) 29 Sep 07:36:07 07:40:39 77° 108° (ESE) 07:45:14 437.305
AO-85 29 Sep 07:41:23 07:44:23 20° 250° (WSW) 07:47:17 145.980
Cosmos 2499 29 Sep 07:49:38 07:50:20 10° 79° (E) 07:51:03 435.465 / 435.565
NOAA 18 29 Sep 08:19:21 08:24:47 66° 287° (WNW) 08:30:12 137.9125
HO-68 29 Sep 08:24:01 08:29:57 27° 96° (E) 08:35:49 435.675
STRAND 1 29 Sep 08:25:36 08:30:31 51° 260° (W) 08:35:30 437.568
SEEDS 29 Sep 08:27:01 08:28:54 13° 92° (E) 08:30:47 437.485
CUTE 1.7 + AOD 2 29 Sep 08:27:07 08:30:14 19° 94° (E) 08:33:21 437.475
CANX-2 29 Sep 08:28:22 08:31:50 24° 95° (E) 08:35:17 2200.000
DANDE 29 Sep 08:31:20 08:39:06 44° 271° (W) 08:46:06 436.750
CUSAT 1 29 Sep 08:32:38 08:36:35 16° 281° (W) 08:40:12 437.405
CINEMA 3 29 Sep 08:33:43 08:37:32 32° 98° (E) 08:41:25 145.822/145.860
LilacSat-2 29 Sep 08:39:56 08:42:21 16° 291° (WNW) 08:44:47 437.200
NOAA 15 29 Sep 08:46:32 08:50:35 23° 294° (WNW) 08:54:36 137.62
AAUSAT CUBESAT 2 29 Sep 08:46:37 08:47:16 10° 91° (E) 08:47:54 437.432
GONETS M04 29 Sep 08:51:24 08:59:52 53° 90° (E) 09:08:22
GOMX 1 29 Sep 08:57:38 08:59:18 12° 295° (WNW) 09:00:56 467.674
CUTE-I 29 Sep 09:07:57 09:11:29 18° 295° (WNW) 09:15:01 437.470
Cubesat XI-IV 29 Sep 09:08:15 09:11:48 18° 295° (WNW) 09:15:21 437.490
DOVE 4 29 Sep 09:10:21 09:13:22 20° 291° (WNW) 09:16:23 437.250
BEESAT 3 29 Sep 09:11:43 09:12:55 11° 47° (NE) 09:14:06 437.485
PRISM 29 Sep 09:12:18 09:16:16 43° 73° (ENE) 09:20:14 437.425
COMPASS 1 29 Sep 09:29:20 09:33:25 48° 99° (E) 09:37:28 437.405
FUNcube-1 29 Sep 09:31:01 09:33:19 14° 93° (E) 09:35:39 145.935
CUBEBUG 2 29 Sep 09:31:21 09:35:25 39° 99° (E) 09:39:35 437.445
Cosmos 2499 29 Sep 09:35:04 09:42:16 86° 95° (E) 09:49:21 435.465 / 435.565
UWE-3 29 Sep 09:46:22 09:50:26 38° 98° (E) 09:54:35 435.000/436.395/437.385
SEEDS 29 Sep 10:00:44 10:04:47 44° 286° (WNW) 10:08:49 437.485
CUTE 1.7 + AOD 2 29 Sep 10:02:19 10:06:04 29° 288° (WNW) 10:09:47 437.475
CANX-2 29 Sep 10:04:05 10:07:35 25° 290° (WNW) 10:11:04 2200.000
UNISAT 6 29 Sep 10:06:28 10:09:38 21° 69° (ENE) 10:12:49 437.425
Oscar 11 29 Sep 10:07:39 10:11:44 38° 98° (E) 10:15:48 145.826/435.025
BEESAT 2 29 Sep 10:08:44 10:11:52 21° 52° (NE) 10:14:59 435.950
HO-68 29 Sep 10:11:00 10:17:49 49° 291° (WNW) 10:24:37 435.675
CINEMA 3 29 Sep 10:11:40 10:14:25 17° 291° (WNW) 10:17:13 145.822/145.860
ZACube-1 29 Sep 10:12:16 10:16:30 47° 100° (E) 10:20:47 437.345
AAUSAT CUBESAT 2 29 Sep 10:18:55 10:23:00 52° 285° (WNW) 10:27:03 437.432
PHONESAT 2.4 29 Sep 10:33:02 10:35:54 59° 154° (SSE) 10:38:48 2401.200-2431.200
ANTELSAT 29 Sep 10:40:41 10:44:49 52° 75° (ENE) 10:48:57 437.575/2403.000
BEESAT 3 29 Sep 10:47:01 10:50:58 65° 243° (WSW) 10:54:53 437.485
GONETS M04 29 Sep 10:49:28 10:56:57 30° 288° (WNW) 11:04:30
PRISM 29 Sep 10:49:58 10:51:45 12° 267° (W) 10:53:31 437.425
TIGRISAT 29 Sep 11:00:38 11:04:54 86° 73° (ENE) 11:09:09 435.000
QB50P1 29 Sep 11:03:51 11:04:47 11° 65° (ENE) 11:05:41 145.935-145.965
FUNcube-1 29 Sep 11:05:34 11:09:42 43° 286° (WNW) 11:13:54 145.935
COMPASS 1 29 Sep 11:06:48 11:08:30 12° 294° (WNW) 11:10:11 437.405
CUBEBUG 2 29 Sep 11:09:06 11:11:43 16° 292° (WNW) 11:14:22 437.445
POPSAT HIP 1 29 Sep 11:15:57 11:18:20 15° 67° (ENE) 11:20:44 437.405
UWE-3 29 Sep 11:23:50 11:26:36 17° 292° (WNW) 11:29:23 435.000/436.395/437.385
DELFI C3 29 Sep 11:25:49 11:29:46 59° 285° (WNW) 11:33:42 145.870
NANOSAT C BR1 29 Sep 11:30:17 11:33:26 21° 69° (ENE) 11:36:34 145.865
Cosmos 2499 29 Sep 11:33:17 11:36:16 13° 293° (WNW) 11:39:15 435.465 / 435.565
UNISAT 6 29 Sep 11:42:32 11:46:11 27° 263° (W) 11:49:50 437.425
Oscar 11 29 Sep 11:44:51 11:47:32 16° 292° (WNW) 11:50:11 145.826/435.025
BEESAT 2 29 Sep 11:46:12 11:49:39 28° 248° (WSW) 11:53:05 435.950
JAS-2 29 Sep 11:48:35 11:54:26 37° 67° (ENE) 12:00:58 435.910
ZACube-1 29 Sep 11:50:09 11:52:22 14° 293° (WNW) 11:54:36 437.345
QB50P2 29 Sep 11:54:15 11:58:16 46° 74° (ENE) 12:02:18 145.880/145.840
HUMSAT D 29 Sep 11:54:57 11:59:10 59° 284° (WNW) 12:03:22 437.325/437.525
POLYITAN 1 29 Sep 11:56:27 12:00:28 46° 74° (ENE) 12:04:29 437.675
PHONESAT 2.4 29 Sep 12:09:22 12:12:06 35° 350° (N) 12:14:50 2401.200-2431.200
AISAT 29 Sep 12:11:58 12:13:48 12° 92° (E) 12:15:39 437.250
ANTELSAT 29 Sep 12:20:57 12:21:48 10° 268° (W) 12:22:39 437.575/2403.000
50 SAT 29 Sep 12:27:42 12:29:54 15° 94° (E) 12:32:05 437.505
BUGSAT 1 29 Sep 12:28:00 12:31:44 35° 73° (ENE) 12:35:28 437.445
DUCHIFAT 1 29 Sep 12:31:53 12:36:03 74° 259° (WSW) 12:40:13 145.980
QB50P1 29 Sep 12:35:54 12:40:01 56° 260° (W) 12:44:09 145.935-145.965
DX 1 29 Sep 12:41:04 12:43:40 16° 94° (E) 12:46:16 434.975-435.025
AIST 2 29 Sep 12:44:16 12:48:06 34° 55° (NE) 12:51:55 435.215
POPSAT HIP 1 29 Sep 12:49:51 12:53:46 38° 261° (W) 12:57:42 437.405
CUBEBUG 1 29 Sep 12:53:19 12:57:33 50° 100° (E) 13:01:43 437.445
VELOX 1 29 Sep 12:53:30 12:57:35 37° 98° (E) 13:01:39 145.980
M-CUBED/EXP-1 PRIME 29 Sep 12:59:39 13:01:44 16° 101° (E) 13:03:50 437.505
ESTCUBE 1 29 Sep 13:00:56 13:05:29 80° 284° (WNW) 13:10:00 437.505/2401.250
NANOSAT C BR1 29 Sep 13:05:27 13:08:58 26° 263° (W) 13:12:32 145.865
SPROUT 29 Sep 13:26:20 13:30:28 49° 100° (E) 13:34:35 437.525
Gurwin Techsat 1B 29 Sep 13:30:24 13:33:48 18° 65° (ENE) 13:37:12 435.225
QB50P2 29 Sep 13:32:45 13:34:16 12° 268° (W) 13:35:48 145.880/145.840
JAS-2 29 Sep 13:33:38 13:39:23 35° 265° (W) 13:45:50 435.910
POLYITAN 1 29 Sep 13:35:00 13:36:28 12° 268° (W) 13:37:57 437.675
UKube-1 29 Sep 13:43:46 13:48:04 67° 102° (ESE) 13:52:20 .
PHONESAT 2.4 29 Sep 13:45:54 13:48:35 31° 7° (N) 13:51:15 2401.200-2431.200
AISAT 29 Sep 13:46:17 13:50:30 47° 287° (WNW) 13:54:42 437.250
AUBIESAT-1 29 Sep 13:54:05 13:57:24 82° 107° (ESE) 14:00:46 437.475
Oscar 19 29 Sep 13:56:25 14:01:34 68° 74° (ENE) 14:06:44 437.125/150
50 SAT 29 Sep 14:00:17 14:03:23 26° 288° (WNW) 14:06:27 437.505
PCSat 29 Sep 14:03:10 14:08:30 56° 61° (ENE) 14:13:48 145.827
BUGSAT 1 29 Sep 14:04:54 14:07:11 15° 266° (W) 14:09:29 437.445
AO-7 29 Sep 14:07:40 14:10:56 13° 50° (NE) 14:14:12 29.400- 29.500
DX 1 29 Sep 14:15:58 14:19:58 37° 288° (WNW) 14:23:57 434.975-435.025
AIST 2 29 Sep 14:23:24 14:26:19 18° 250° (WSW) 14:29:13 435.215
SO-50 29 Sep 14:30:53 14:34:41 23° 111° (ESE) 14:38:29 436.795
VELOX 1 29 Sep 14:30:54 14:33:44 17° 293° (WNW) 14:36:33 145.980
CUBEBUG 1 29 Sep 14:31:32 14:33:20 12° 295° (WNW) 14:35:08 437.445
Cosmos 2504 29 Sep 14:32:12 14:37:21 19° 71° (ENE) 14:42:41 435.465 / 435.565
M-CUBED/EXP-1 PRIME 29 Sep 14:33:46 14:36:13 20° 293° (WNW) 14:38:41 437.505
Cosmos 2491 29 Sep 14:35:44 14:43:21 35° 86° (E) 14:51:00 435.465 / 435.565
BEESAT 29 Sep 14:40:18 14:40:50 10° 91° (E) 14:41:21 436.000
TISAT 1 29 Sep 14:40:27 14:44:36 65° 101° (ESE) 14:48:44 437.305
YUBILEINY 29 Sep 14:42:41 14:51:20 66° 81° (E) 14:59:57 435.215
ITAMSAT 1 29 Sep 14:54:09 14:58:35 29° 69° (ENE) 15:03:01 435.822/435.867
SPROUT 29 Sep 15:04:11 15:05:57 12° 294° (WNW) 15:07:41 437.525
Gurwin Techsat 1B 29 Sep 15:08:07 15:13:16 53° 259° (W) 15:18:28 435.225
PHONESAT 2.4 29 Sep 15:21:55 15:24:53 88° 195° (SSW) 15:27:50 2401.200-2431.200
Oscar 19 29 Sep 15:39:24 15:41:17 12° 269° (W) 15:43:11 437.125/150
PCSat 29 Sep 15:48:04 15:51:22 17° 256° (WSW) 15:54:40 145.827
ITUPSAT 1 29 Sep 15:49:20 15:54:07 63° 102° (ESE) 15:58:53 437.325
AO-7 29 Sep 15:53:56 16:02:09 67° 69° (ENE) 16:10:22 29.400- 29.500
SWISSCUBE 29 Sep 16:01:25 16:06:14 83° 284° (WNW) 16:11:02 437.505
SO-50 29 Sep 16:10:30 16:14:57 36° 305° (NW) 16:19:23 436.795
BEESAT 29 Sep 16:14:14 16:19:00 68° 285° (WNW) 16:23:45 436.000
Cosmos 2504 29 Sep 16:23:44 16:31:14 70° 266° (W) 16:39:16 435.465 / 435.565
Cosmos 2491 29 Sep 16:31:34 16:39:51 46° 283° (WNW) 16:48:15 435.465 / 435.565
ITAMSAT 1 29 Sep 16:33:33 16:37:57 28° 263° (W) 16:42:23 435.822/435.867
YUBILEINY 29 Sep 16:41:04 16:47:16 22° 278° (W) 16:53:30 435.215
PHONESAT 2.4 29 Sep 16:59:07 17:00:39 13° 216° (SW) 17:02:10 2401.200-2431.200
BRITE-PL 29 Sep 17:04:55 17:08:45 19° 66° (ENE) 17:12:32 437.365/2234.400
AIST 1 29 Sep 17:19:36 17:23:51 64° 265° (W) 17:28:02
MOZHAYETS 4 29 Sep 17:24:25 17:29:04 69° 284° (WNW) 17:33:40
ITUPSAT 1 29 Sep 17:29:23 17:31:22 12° 296° (WNW) 17:33:21 437.325
KKS-1 29 Sep 17:36:25 17:40:50 83° 286° (WNW) 17:45:15 437.445
O/OREOS (USA 219) 29 Sep 17:49:09 17:53:46 88° 69° (ENE) 17:58:20 437.305
AO-7 29 Sep 17:49:10 17:55:23 23° 265° (W) 18:01:39 29.400- 29.500
HORYU 2 29 Sep 17:51:19 17:55:44 88° 76° (ENE) 18:00:09 437.375
NOAA 18 29 Sep 18:03:56 18:07:54 21° 65° (ENE) 18:11:53 137.9125
STARS 29 Sep 18:04:54 18:09:17 85° 284° (WNW) 18:13:39 437.465
CUSAT 1 29 Sep 18:07:15 18:09:49 12° 77° (ENE) 18:12:31 437.405
GOMX 1 29 Sep 18:21:26 18:26:30 42° 73° (ENE) 18:31:21 467.674
NOAA 15 29 Sep 18:23:04 18:28:07 47° 72° (ENE) 18:33:13 137.62
DOVE 4 29 Sep 18:34:33 18:38:27 23° 70° (ENE) 18:42:12 437.250
BRITE-PL 29 Sep 18:41:09 18:46:43 56° 260° (W) 18:52:14 437.365/2234.400
CUTE-I 29 Sep 18:45:27 18:50:40 63° 74° (ENE) 18:55:56 437.470
Cubesat XI-IV 29 Sep 18:45:55 18:51:09 63° 74° (ENE) 18:56:24 437.490
CUBESAT XI-V 29 Sep 18:49:17 18:53:56 67° 285° (WNW) 18:58:33 437.345
HO-68 29 Sep 18:51:50 18:55:45 16° 57° (ENE) 18:59:39 435.675
RS-15 29 Sep 18:57:54 19:07:20 31° 103° (ESE) 19:17:08 29.354- 29.394
GONETS M04 29 Sep 19:06:36 19:13:00 22° 68° (ENE) 19:19:20
LilacSat-2 29 Sep 19:17:32 19:21:09 48° 260° (W) 19:24:49 437.200
CANX-2 29 Sep 19:19:58 19:21:36 12° 66° (ENE) 19:23:15 2200.000
